Wind_Speed
26 27 26 25 23 22 22 22 21 21 21 20 20 20 21 21 21 21 20 18 18 18 19 20 20 20 19 20 20 20 21 21 21 21 19 19 20 20 20 22 23 25
27 28 28 26 25 23 22 22 22 22 22 22 21 21 21 21 20 20 19 19 19 19 20 21 20 19 19 19 20 20 20 20 21 21 20 19 20 20 21 22 22 23
27 29 29 28 27 25 24 23 23 23 22 22 22 21 21 20 20 19 19 20 20 21 21 21 20 20 19 19 19 19 20 20 21 22 22 21 21 21 21 22 22 23
28 30 31 31 30 29 27 26 25 24 23 22 21 21 21 21 20 20 20 20 21 21 21 20 20 20 20 20 20 20 20 21 22 23 23 23 23 23 22 22 23 24
28 31 32 33 32 31 30 28 26 25 24 23 21 21 20 21 21 21 21 21 21 21 20 20 20 21 21 21 20 20 20 22 23 24 24 25 25 25 24 24 24 26
28 31 33 34 34 33 31 29 27 26 24 23 22 21 21 21 21 21 21 20 20 20 20 20 21 21 23 23 22 22 22 22 23 24 25 26 27 27 27 27 27 28
27 30 32 35 35 34 32 30 28 26 25 24 22 21 21 21 22 22 21 20 20 20 20 20 21 22 23 24 24 24 24 23 23 24 25 26 28 29 29 30 30 31
26 29 32 34 35 35 33 30 28 27 26 25 23 22 21 21 22 22 21 21 20 20 20 21 21 22 22 23 24 25 25 25 25 26 27 28 29 30 30 31 31 32
27 29 32 35 36 35 33 30 28 27 27 27 26 25 23 22 21 21 21 21 21 21 21 22 22 22 22 23 24 25 26 26 26 27 28 29 30 31 31 31 32 32
27 29 32 35 36 36 33 30 27 26 26 27 26 25 23 21 20 21 21 21 22 22 22 23 23 23 23 24 25 26 27 27 27 27 28 29 31 31 31 31 32 32
27 28 31 34 35 35 32 28 26 25 24 23 23 22 22 22 22 22 23 24 25 24 23 23 23 23 23 24 25 26 27 28 27 27 27 28 29 30 30 30 32 32
27 28 31 34 35 33 29 25 23 22 22 21 22 22 22 23 23 23 24 25 26 26 25 25 25 24 23 24 26 26 27 27 26 26 26 27 27 28 28 29 31 32
28 29 31 33 33 31 27 24 22 21 20 20 21 21 22 22 23 24 25 25 26 27 27 26 26 26 25 26 27 26 25 24 25 26 25 25 26 27 27 29 30 31
29 29 31 32 32 28 25 22 21 21 20 19 20 20 21 22 23 24 25 26 26 27 27 27 27 27 27 27 27 27 25 25 25 26 25 26 27 28 27 28 29 29
28 29 32 32 30 26 22 21 20 20 20 20 20 21 21 22 23 24 25 26 27 27 27 27 27 28 28 28 28 28 28 28 28 28 27 27 28 28 28 27 27 28
27 29 31 31 27 23 20 20 19 19 20 20 21 21 22 23 23 24 25 26 27 28 28 28 28 28 28 28 27 28 29 30 30 29 29 29 29 29 29 27 26 27
27 29 29 27 23 19 18 18 18 19 20 21 22 22 23 24 24 25 25 26 27 27 27 28 28 27 26 26 25 27 29 31 31 30 29 29 30 30 29 28 27 27
27 28 26 23 19 17 16 16 17 19 20 21 22 23 24 25 25 26 26 26 27 27 28 29 28 26 26 26 25 27 28 30 30 30 29 29 30 31 30 29 28 28
26 25 22 19 18 16 16 16 18 20 21 22 24 25 26 27 28 28 27 28 28 28 29 30 29 28 27 27 27 28 28 29 29 30 30 30 30 31 31 30 29 29
24 23 20 18 18 18 19 19 21 23 24 25 26 27 29 30 30 30 29 30 31 30 29 30 30 30 29 29 29 29 28 29 29 29 30 30 29 30 30 30 28 29
23 22 21 20 21 22 22 23 25 26 27 28 29 29 31 31 32 33 32 32 31 31 30 29 30 31 31 30 30 30 30 29 28 28 29 29 28 28 29 29 28 27
24 24 24 24 25 25 26 27 28 30 31 31 32 32 32 32 33 33 33 32 31 31 31 30 30 31 32 32 31 31 31 30 29 28 28 28 28 27 28 29 29 27
26 26 27 28 28 29 30 31 32 33 33 34 34 34 33 34 34 33 34 34 32 32 31 30 30 31 32 31 30 30 31 31 29 28 28 28 27 26 27 28 28 27
28 28 29 30 31 32 32 33 35 36 36 36 35 35 35 35 34 34 35 36 34 33 33 33 32 32 32 30 29 30 30 29 29 28 29 28 26 25 26 26 27 27
29 30 31 31 33 34 33 35 38 39 39 39 38 36 35 34 34 35 37 37 36 35 34 34 34 33 31 29 29 30 29 28 28 27 27 26 24 24 25 25 26 27
31 32 32 33 34 35 35 36 38 40 41 41 40 36 34 35 36 37 38 37 37 35 34 33 32 30 29 29 29 29 28 27 27 26 25 24 23 23 24 24 25 25
Wind_Direction
348 348 345 341 334 330 327 325 323 321 320 318 317 317 314 311 310 310 310 307 305 306 306 307 306 304 303 302 302 303 303 304 305 306 304 300 297 294 291 292 292 292
345 345 345 343 338 332 327 324 322 320 319 318 318 317 314 312 311 312 311 310 309 308 308 308 307 305 303 302 302 303 303 304 307 309 308 304 302 300 297 296 296 295
341 343 344 344 341 336 331 326 323 321 319 319 318 317 315 313 313 313 312 312 311 310 310 309 307 305 303 303 303 303 303 306 309 311 312 310 308 307 305 303 300 299
336 340 342 342 341 338 335 330 326 323 321 319 317 316 314 312 312 312 312 312 312 311 310 309 306 303 302 303 303 303 305 308 312 313 313 313 312 311 309 307 305 304
331 335 339 340 339 337 334 331 327 325 322 320 318 316 314 312 310 310 311 312 311 310 309 308 306 303 302 302 302 303 306 310 313 313 313 313 312 311 309 307 304 303
327 331 335 337 337 336 333 331 327 325 322 321 319 316 313 312 311 311 312 312 311 310 308 307 306 305 304 304 303 304 306 309 310 310 310 310 308 307 305 303 302 300
322 326 331 334 334 333 331 329 326 323 321 320 318 316 315 314 313 314 313 312 311 310 309 307 307 307 307 306 305 305 306 308 308 307 307 306 304 303 302 301 300 300
318 323 328 331 332 331 330 327 325 322 320 320 321 320 319 318 317 318 317 315 314 313 311 308 307 306 306 305 304 305 306 307 307 306 305 303 302 301 300 299 299 300
317 321 326 329 329 329 327 325 323 323 323 325 326 326 326 325 323 321 318 317 317 316 313 311 308 305 303 302 302 302 303 304 304 304 303 301 300 298 298 299 299 300
315 319 324 327 327 327 325 324 323 325 327 328 328 329 330 327 322 319 318 318 318 316 314 312 309 304 303 303 301 300 301 302 301 301 300 298 296 296 297 299 299 301
311 317 322 324 325 324 323 322 324 326 327 325 325 327 326 324 322 321 319 318 317 315 313 310 307 305 306 306 303 302 302 301 300 300 300 297 295 296 299 300 300 302
309 315 320 322 322 321 320 320 321 323 322 321 324 327 325 323 320 318 316 315 315 314 312 309 306 306 307 305 303 302 301 300 299 299 299 297 296 298 300 300 301 302
309 316 320 321 320 319 318 319 321 321 321 322 324 324 320 316 313 312 312 312 313 313 311 310 308 307 305 303 301 300 298 297 296 297 298 297 298 300 301 302 303 304
309 315 319 319 318 317 317 320 321 321 322 322 321 318 315 312 312 311 311 311 311 311 311 309 308 305 303 301 300 299 299 298 296 296 297 298 301 303 304 305 306 305
306 314 317 317 315 314 316 318 319 320 323 324 322 319 317 316 315 314 312 311 310 311 310 307 305 304 305 305 303 301 302 301 300 300 300 301 303 304 306 308 308 307
305 313 315 313 312 314 316 318 322 325 326 325 322 322 321 320 318 315 313 312 311 311 309 306 306 308 309 308 305 304 304 304 304 305 304 304 304 304 307 309 308 306
305 312 312 311 312 315 318 322 327 328 328 327 326 326 324 322 319 315 313 312 311 312 310 308 309 309 307 306 305 305 306 306 306 307 306 305 305 305 308 309 307 305
307 310 310 312 314 317 322 326 330 332 331 331 332 331 330 327 323 319 316 314 313 312 310 308 307 306 304 303 304 305 305 305 306 307 307 306 306 306 308 308 306 304
308 309 310 313 316 320 324 327 329 332 334 336 336 334 333 332 329 325 320 316 314 312 310 308 306 304 304 304 305 304 304 304 305 306 307 307 307 307 307 308 309 307
308 306 308 314 318 321 323 325 326 326 329 333 333 332 331 331 332 330 325 320 316 315 313 310 307 305 305 305 306 306 304 303 304 305 306 308 308 309 309 311 311 310
308 306 309 314 318 320 320 322 323 322 324 325 325 326 327 328 329 329 327 322 318 317 316 314 310 307 305 304 305 306 304 303 303 304 306 308 308 309 311 311 312 314
311 311 313 316 318 318 316 316 317 318 319 319 319 320 321 322 324 326 326 324 320 317 315 315 313 311 307 305 303 302 300 301 302 304 307 309 308 308 310 309 309 312
313 314 315 316 316 314 313 312 312 312 312 313 314 316 317 318 319 323 325 325 321 316 313 312 314 314 312 308 303 299 298 299 300 304 307 308 305 306 308 308 308 310
311 312 313 313 313 312 310 308 307 307 308 309 310 311 313 314 316 320 324 324 322 317 313 311 313 314 313 310 304 300 299 298 299 304 308 307 304 304 306 306 307 308
308 309 309 309 309 309 308 306 305 307 307 307 306 306 309 313 314 316 318 320 320 316 311 309 311 311 310 309 304 301 299 298 299 305 308 307 305 305 304 304 305 308
305 304 304 304 305 307 306 305 305 306 306 305 303 303 307 312 313 313 315 316 316 313 309 307 306 305 306 308 306 303 298 296 298 302 305 305 305 305 304 303 307 311
Height
3185 3183 3182 3180 3179 3178 3176 3174 3173 3172 3171 3170 3169 3168 3167 3166 3165 3164 3163 3163 3162 3161 3160 3159 3158 3157 3156 3155 3154 3153 3152 3151 3150 3149 3148 3147 3146 3146 3145 3144 3143 3142
3184 3182 3181 3179 3178 3176 3175 3173 3172 3170 3169 3168 3167 3166 3165 3164 3163 3162 3161 3161 3160 3159 3158 3157 3156 3156 3155 3154 3153 3152 3150 3149 3148 3147 3146 3145 3144 3143 3142 3141 3140 3139
3182 3181 3179 3177 3176 3175 3173 3171 3170 3169 3168 3166 3165 3165 3164 3163 3162 3160 3159 3159 3158 3157 3156 3156 3154 3153 3153 3152 3151 3150 3149 3147 3146 3145 3143 3142 3141 3140 3139 3138 3137 3137
3181 3179 3177 3175 3174 3172 3171 3169 3168 3167 3166 3165 3164 3163 3162 3161 3159 3159 3158 3157 3156 3155 3154 3154 3153 3152 3151 3150 3149 3148 3147 3145 3144 3143 3141 3140 3138 3137 3136 3135 3134 3133
3179 3177 3176 3174 3172 3171 3169 3167 3166 3165 3164 3163 3162 3161 3160 3159 3157 3156 3155 3155 3154 3153 3152 3151 3150 3150 3149 3148 3147 3146 3144 3143 3141 3140 3139 3137 3136 3135 3133 3132 3131 3130
3178 3176 3174 3173 3171 3169 3167 3165 3164 3163 3162 3161 3160 3158 3157 3156 3155 3154 3153 3152 3151 3150 3150 3149 3148 3147 3146 3145 3144 3143 3142 3141 3139 3138 3137 3135 3134 3132 3131 3129 3128 3127
3177 3175 3173 3171 3170 3168 3166 3164 3162 3161 3160 3159 3158 3156 3155 3154 3153 3151 3150 3149 3149 3148 3147 3147 3146 3145 3144 3143 3142 3141 3140 3138 3137 3136 3135 3133 3132 3130 3128 3127 3125 3124
3175 3173 3172 3170 3168 3166 3164 3162 3160 3158 3157 3156 3156 3154 3153 3152 3150 3149 3148 3147 3146 3146 3145 3145 3144 3143 3142 3140 3139 3138 3137 3136 3135 3133 3132 3131 3129 3127 3126 3124 3122 3121
3172 3170 3169 3167 3166 3164 3162 3160 3158 3156 3153 3152 3152 3151 3150 3149 3148 3147 3146 3145 3144 3144 3143 3142 3142 3140 3139 3138 3137 3136 3135 3134 3132 3131 3130 3128 3126 3124 3122 3121 3119 3117
3170 3168 3167 3165 3164 3162 3160 3158 3156 3154 3152 3150 3149 3148 3148 3147 3146 3145 3144 3143 3142 3142 3141 3140 3139 3138 3137 3136 3135 3134 3133 3132 3130 3128 3127 3125 3123 3121 3119 3118 3116 3114
3168 3166 3165 3163 3162 3160 3158 3156 3154 3152 3151 3150 3148 3147 3146 3145 3144 3143 3142 3141 3140 3139 3138 3138 3137 3136 3135 3134 3133 3131 3130 3129 3127 3125 3124 3122 3120 3118 3117 3115 3112 3110
3166 3164 3162 3161 3160 3158 3157 3155 3153 3152 3150 3149 3147 3145 3144 3142 3141 3141 3140 3139 3137 3136 3135 3135 3134 3133 3132 3131 3130 3129 3128 3126 3124 3122 3121 3119 3118 3116 3114 3112 3110 3107
3162 3161 3160 3158 3157 3155 3154 3152 3151 3150 3149 3147 3145 3144 3142 3141 3140 3139 3138 3137 3135 3134 3133 3131 3130 3129 3129 3128 3127 3126 3124 3123 3121 3120 3118 3117 3115 3113 3112 3109 3107 3105
3159 3158 3157 3156 3154 3153 3151 3150 3149 3148 3147 3145 3144 3143 3142 3140 3139 3137 3136 3135 3133 3132 3130 3129 3127 3126 3124 3124 3123 3121 3120 3120 3118 3117 3115 3114 3112 3110 3108 3106 3104 3102
3157 3156 3155 3153 3152 3151 3149 3148 3147 3146 3144 3143 3142 3141 3139 3138 3137 3135 3134 3133 3131 3130 3128 3126 3125 3123 3122 3121 3120 3118 3117 3116 3115 3113 3111 3110 3108 3106 3105 3103 3101 3099
3156 3154 3153 3151 3150 3148 3147 3146 3145 3143 3142 3140 3139 3138 3136 3135 3134 3132 3131 3130 3128 3127 3125 3123 3122 3122 3121 3119 3117 3115 3114 3112 3111 3110 3108 3106 3105 3103 3102 3100 3098 3096
3153 3152 3151 3149 3147 3146 3145 3144 3142 3141 3140 3138 3137 3135 3134 3133 3131 3130 3128 3127 3125 3124 3122 3120 3120 3119 3118 3116 3114 3112 3110 3109 3108 3107 3106 3104 3102 3100 3098 3097 3096 3094
3151 3149 3148 3146 3145 3144 3143 3142 3140 3139 3138 3136 3135 3133 3132 3131 3129 3127 3125 3124 3122 3121 3120 3118 3117 3116 3114 3113 3111 3110 3108 3106 3105 3104 3103 3101 3099 3097 3096 3094 3093 3091
3148 3146 3145 3144 3142 3142 3141 3139 3138 3137 3136 3134 3133 3131 3130 3128 3127 3124 3123 3121 3120 3119 3117 3115 3113 3113 3111 3110 3108 3107 3105 3103 3102 3101 3099 3098 3096 3094 3093 3091 3090 3088
3144 3143 3142 3141 3140 3139 3138 3137 3136 3135 3134 3132 3131 3129 3127 3126 3124 3122 3120 3118 3117 3116 3114 3112 3110 3109 3108 3107 3105 3104 3102 3100 3099 3097 3096 3095 3094 3092 3090 3089 3087 3084
3141 3140 3139 3138 3138 3137 3135 3135 3134 3133 3132 3130 3129 3127 3125 3123 3121 3120 3118 3116 3114 3112 3111 3109 3108 3106 3105 3104 3102 3100 3098 3097 3095 3094 3093 3092 3091 3089 3088 3086 3083 3081
3137 3137 3136 3135 3135 3134 3133 3132 3131 3130 3129 3128 3126 3125 3123 3121 3120 3118 3116 3114 3112 3110 3108 3107 3105 3104 3102 3101 3099 3097 3094 3093 3092 3091 3090 3089 3088 3086 3085 3083 3081 3079
3134 3133 3133 3132 3132 3131 3130 3129 3128 3127 3126 3125 3124 3122 3121 3119 3117 3115 3113 3111 3109 3107 3105 3104 3103 3101 3100 3098 3095 3093 3091 3090 3089 3088 3087 3086 3085 3084 3082 3080 3078 3076
3131 3130 3130 3129 3129 3129 3128 3126 3125 3124 3123 3122 3120 3119 3118 3116 3113 3111 3109 3107 3105 3103 3101 3100 3099 3098 3097 3095 3092 3090 3088 3087 3086 3085 3084 3083 3082 3081 3079 3078 3076 3074
3128 3128 3127 3127 3126 3125 3125 3123 3122 3120 3119 3118 3117 3115 3114 3112 3110 3107 3105 3104 3102 3100 3098 3096 3095 3095 3093 3092 3090 3087 3085 3084 3083 3083 3082 3080 3079 3078 3077 3076 3074 3071
3126 3125 3125 3124 3123 3122 3121 3120 3119 3117 3116 3114 3113 3113 3111 3108 3106 3104 3102 3100 3099 3097 3095 3093 3091 3091 3090 3089 3087 3085 3083 3081 3080 3080 3079 3078 3076 3075 3074 3073 3071 3069